DW2973 Weather Reports


time (UTC)temp
C
wind
direction
speed
KPH
gust
KPH
rain 1hr
cm
rain 24hr
cm
rain mn
cm
humidity
%
barometer
mb
20260905160013 17 166 1.6 0.0 0.00 0.00 0.05 71 1008.0
20260905154512 17 225 3.2 0.0 0.00 0.00 0.05 71 1007.9
20260905153014 17 220 3.2 0.0 0.00 0.00 0.05 73 1007.8
20260905151511 17 274 1.6 0.0 0.00 0.00 0.05 71 1007.7
20260905150009 18 223 3.2 0.0 0.00 0.00 0.05 70 1007.6
20260905144506 18 205 3.2 0.0 0.00 0.00 0.05 69 1007.3
20260905143006 18 296 3.2 0.0 0.00 0.00 0.05 71 1007.3
20260905141506 18 227 3.2 0.0 0.00 0.00 0.05 73 1007.2
20260905140006 18 237 1.6 0.0 0.00 0.00 0.05 73 1007.2
20260905134505 17 259 1.6 0.0 0.00 0.00 0.05 74 1007.1
20260905133006 17 259 1.6 0.0 0.00 0.00 0.05 78 1007.0
20260905131506 17 232 1.6 0.0 0.00 0.00 0.05 75 1006.9
20260905130003 18 234 3.2 0.0 0.00 0.00 0.05 71 1007.0
20260905124600 18 260 3.2 0.0 0.00 0.00 0.05 73 1006.7
20260905123101 18 211 1.6 0.0 0.00 0.00 0.05 75 1006.6
20260905121557 18 233 1.6 0.0 0.00 0.00 0.05 74 1006.3
20260905120057 18 240 3.2 0.0 0.00 0.00 0.05 74 1006.3
20260905114605 18 246 3.2 0.0 0.00 0.00 0.05 75 1006.1
20260905113052 18 237 1.6 0.0 0.00 0.00 0.05 77 1006.1
20260905111622 17 237 1.6 0.0 0.00 0.00 0.05 76 1005.9
20260905110056 17 265 1.6 0.0 0.00 0.00 0.05 77 1005.8
20260905104608 17 234 3.2 0.0 0.00 0.00 0.05 74 1005.7
20260905103048 17 250 1.6 0.0 0.00 0.00 0.05 75 1005.7
20260905101551 17 236 1.6 0.0 0.00 0.00 0.05 75 1005.4
20260905100046 17 277 3.2 0.0 0.00 0.00 0.05 76 1005.4
20260905094641 17 231 1.6 0.0 0.00 0.00 0.05 76 1005.4
20260905093042 17 232 4.8 0.0 0.00 0.00 0.05 73 1005.3
20260905091547 17 277 1.6 0.0 0.00 0.00 0.05 74 1005.0
20260905090040 17 282 1.6 0.0 0.00 0.00 0.05 77 1005.0
20260905084549 16 246 3.2 0.0 0.00 0.00 0.05 79 1004.9
20260905083033 16 210 3.2 0.0 0.00 0.00 0.05 79 1004.7
20260905081532 16 209 3.2 0.0 0.00 0.00 0.05 80 1004.6
20260905080031 16 227 1.6 0.0 0.00 0.00 0.05 81 1004.6
20260905074529 16 242 1.6 0.0 0.00 0.00 0.05 82 1004.3
20260905073026 15 229 1.6 0.0 0.00 0.00 0.05 83 1004.3
20260905071526 15 222 1.6 0.0 0.00 0.00 0.05 83 1004.3
20260905070024 15 215 1.6 0.0 0.00 0.00 0.05 83 1004.2
20260905064522 15 234 1.6 0.0 0.00 0.00 0.05 84 1004.1
20260905063021 15 215 1.6 0.0 0.00 0.00 0.05 85 1004.1
20260905061528 15 243 1.6 0.0 0.00 0.00 0.05 85 1004.0
20260905060027 14 230 0.0 0.0 0.00 0.00 0.05 86 1003.7
20260905054522 14 234 1.6 0.0 0.00 0.00 0.03 86 1003.6
20260905053015 14 273 0.0 0.0 0.00 0.00 0.03 86 1003.6
20260905051527 14 245 1.6 0.0 0.00 0.00 0.03 86 1003.5
20260905050014 14 257 0.0 0.0 0.00 0.00 0.03 86 1003.3
20260905044511 14 236 0.0 0.0 0.00 0.00 0.03 85 1003.0
20260905043014 14 252 1.6 0.0 0.00 0.00 0.03 85 1002.8
20260905041510 14 196 1.6 0.0 0.00 0.00 0.03 86 1002.7
20260905040009 14 281 3.2 0.0 0.00 0.00 0.03 85 1002.7
20260905034509 14 253 1.6 0.0 0.00 0.00 0.03 86 1002.5
20260905033008 14 265 0.0 0.0 0.00 0.00 0.03 85 1002.4
20260905031513 14 214 1.6 0.0 0.00 0.00 0.03 85 1002.5
20260905030006 14 242 0.0 0.0 0.00 0.00 0.03 85 1002.3
20260905024504 14 223 0.0 0.0 0.00 0.00 0.03 84 1002.1
20260905023009 14 246 1.6 0.0 0.00 0.00 0.03 85 1002.0
20260905021501 14 275 1.6 0.0 0.00 0.00 0.03 84 1001.9
20260905014559 14 246 1.6 0.0 0.00 0.00 0.03 85 1001.5
20260905013117 14 280 1.6 0.0 0.00 0.00 0.03 87 1001.2
20260905011606 14 250 3.2 0.0 0.00 0.00 0.03 87 1001.0
20260905010100 14 240 1.6 0.0 0.00 0.00 0.03 87 1001.0
20260905004555 14 248 1.6 0.0 0.00 0.00 0.03 88 1000.9
20260905003052 14 238 0.0 0.0 0.00 0.00 0.03 88 1000.7
20260905001552 14 225 3.2 0.0 0.00 0.00 0.03 87 1000.6
20260905000049 14 206 1.6 0.0 0.00 0.00 0.03 88 1000.5
20260904234550 14 221 1.6 0.0 0.00 0.00 0.03 88 1000.4
20260904233048 14 250 1.6 0.0 0.00 0.00 0.03 88 1000.4
20260904231546 14 224 0.0 0.0 0.00 0.00 0.00 89 1000.2
20260904230100 14 256 0.0 0.0 0.00 0.00 0.00 89 1000.3
20260904224546 14 226 0.0 0.0 0.00 0.00 0.00 89 1000.3
20260904223102 14 232 1.6 0.0 0.00 0.00 0.00 89 1000.1
20260904221541 14 242 3.2 0.0 0.00 0.00 0.00 89 1000.1
20260904220044 14 292 1.6 0.0 0.00 0.00 0.00 89 1000.0
20260904214547 14 232 1.6 0.0 0.00 0.00 0.05 90 999.9
20260904213041 13 308 1.6 0.0 0.00 0.00 0.05 91 999.9
20260904211539 13 211 1.6 0.0 0.00 0.00 0.05 91 999.7
20260904210037 13 254 1.6 0.0 0.00 0.00 0.05 91 999.6
20260904204538 13 284 1.6 0.0 0.00 0.00 0.05 92 999.3
20260904203036 13 229 1.6 0.0 0.00 0.00 0.05 92 999.3
20260904201542 13 242 3.2 0.0 0.00 0.00 0.05 93 999.1
20260904200043 13 244 3.2 0.0 0.00 0.00 0.05 93 998.9
20260904194534 14 245 0.0 0.0 0.00 0.00 0.05 93 998.7
20260904193039 13 244 0.0 0.0 0.00 0.00 0.05 93 998.6
20260904191532 13 204 0.0 0.0 0.00 0.00 0.05 93 998.7
20260904190031 13 257 0.0 0.0 0.00 0.00 0.05 92 998.4
20260904184529 14 234 1.6 0.0 0.00 0.00 0.05 92 998.4
20260904183028 14 244 0.0 0.0 0.00 0.00 0.05 92 998.2
20260904181527 14 225 0.0 0.0 0.00 0.00 0.05 91 998.2
20260904180026 15 226 0.0 0.0 0.00 0.00 0.05 92 998.1
20260904174526 15 226 0.0 0.0 0.00 0.00 0.05 92 997.9
20260904173025 15 224 0.0 0.0 0.00 0.00 0.05 91 998.0
20260904171550 15 226 0.0 0.0 0.00 0.00 0.05 91 998.3
20260904170025 15 227 0.0 0.0 0.00 0.00 0.05 91 998.0
20260904164524 15 281 0.0 0.0 0.00 0.00 0.05 91 997.8
20260904163040 15 306 1.6 0.0 0.00 0.00 0.05 92 997.8
20260904161522 16 253 0.0 0.0 0.00 0.00 0.05 92 998.0